Wind_Speed
33 35 34 32 32 36 34 34 28 27 30 27 27 29 28 26 22 19 15 15 17 14 12 11 10 12 10 10 9 6 6 8 13 15 17 19 23 26 26 26 26 26 25 24 24 22 19 18 18
29 31 34 32 34 38 40 36 35 32 31 31 29 33 32 29 29 29 21 18 19 21 18 16 15 12 15 12 11 11 10 8 13 15 16 18 20 22 22 22 22 21 20 18 18 20 21 21 22
25 30 32 33 32 37 39 40 40 36 34 33 34 35 35 34 35 32 28 24 26 22 21 21 19 18 17 19 17 19 20 17 15 15 19 20 21 20 23 23 23 20 19 16 17 18 20 22 23
24 25 30 31 33 36 37 39 41 39 39 38 39 41 42 41 39 36 33 31 26 27 24 24 22 23 23 22 24 19 20 22 22 21 20 19 20 22 23 20 20 23 20 19 21 25 24 23 27
27 27 27 29 31 35 39 39 39 41 42 42 41 46 49 45 41 40 36 34 32 30 31 35 36 33 29 29 28 23 26 26 25 25 25 25 23 23 25 27 25 25 23 25 28 29 31 32 34
24 27 28 29 33 35 36 39 41 42 43 45 43 44 44 47 45 47 48 45 41 42 41 41 41 40 40 37 34 35 35 33 33 30 31 31 30 30 30 31 32 31 32 34 35 34 35 36 37
21 22 25 27 27 30 35 37 40 42 42 43 45 45 44 45 44 43 48 50 50 49 47 49 47 44 45 44 43 41 41 40 37 38 38 35 35 37 37 37 35 36 40 41 41 40 39 39 39
22 23 23 25 29 31 33 35 38 38 38 39 38 38 42 46 47 48 49 49 51 52 51 53 55 53 49 49 49 48 50 50 50 47 46 44 41 40 41 42 40 39 42 43 44 43 43 44 43
25 25 27 30 31 32 32 33 33 36 37 38 38 38 39 44 45 45 49 51 51 53 55 58 55 57 56 54 55 57 57 55 52 52 52 54 52 47 44 43 46 48 48 50 52 52 52 49 48
26 27 29 31 33 32 32 33 34 35 36 37 38 39 41 43 46 46 45 48 52 55 56 56 58 58 60 58 57 56 60 60 60 60 57 55 52 51 50 50 51 51 51 49 51 54 54 51 51
23 26 29 31 32 32 32 34 36 36 36 37 39 41 43 45 47 49 48 48 49 52 53 54 55 55 57 57 55 56 55 60 59 60 56 54 52 52 54 53 52 53 53 54 55 54 54 53 53
27 28 27 28 30 30 31 33 35 34 34 35 38 41 42 44 46 50 50 51 51 50 51 51 53 53 54 53 55 54 54 56 55 55 56 59 60 60 56 53 52 49 48 48 47 44 46 53 53
31 31 31 32 33 33 34 34 32 31 32 34 35 36 39 40 42 44 48 51 52 52 54 53 53 53 54 54 54 55 55 56 58 59 60 61 60 56 55 53 49 48 48 49 48 53 55 51 53
35 35 36 37 39 39 39 37 35 34 36 37 38 39 41 43 46 47 50 51 53 51 52 53 54 53 53 55 56 56 58 58 58 59 60 58 56 52 49 50 50 42 41 44 46 48 50 49 49
36 37 38 40 41 42 44 42 40 39 41 43 45 46 48 50 51 53 55 55 53 54 52 51 50 51 52 53 57 58 59 60 60 59 59 58 55 55 56 52 50 45 44 47 48 48 50 51 53
40 40 40 40 39 41 43 44 46 47 48 48 50 53 56 55 55 55 53 55 58 59 58 54 54 55 54 53 54 54 56 57 58 59 59 60 59 59 58 56 54 50 48 50 52 49 49 51 53
44 43 42 43 42 42 44 44 47 48 49 51 51 50 52 53 55 54 54 56 56 59 60 60 55 52 52 52 56 57 57 57 54 53 54 55 57 58 59 58 54 52 52 56 55 55 55 57 57
43 44 44 42 41 41 42 44 45 46 47 49 49 47 48 50 52 52 53 55 57 57 59 61 59 55 55 55 56 57 58 55 55 56 55 53 57 58 58 57 54 54 56 55 53 56 59 59 59
40 43 45 44 39 40 41 41 41 43 43 44 44 43 43 45 47 49 49 51 54 55 57 56 60 58 58 60 58 59 59 58 58 56 60 56 60 58 62 60 61 62 58 54 56 60 61 58 55
40 41 42 42 41 42 41 38 38 40 40 41 42 40 40 42 42 44 46 48 49 51 53 56 58 60 58 58 57 58 56 56 54 55 59 61 60 62 58 57 57 59 60 59 64 63 63 63 66
40 42 41 42 44 45 42 39 38 37 37 39 40 40 40 39 41 44 45 44 46 48 50 52 55 57 59 56 54 49 50 48 47 44 44 41 40 40 46 45 48 54 47 52 53 53 56 51 53
42 44 44 44 44 45 43 37 37 39 40 40 40 39 39 40 40 43 46 48 47 47 50 51 51 51 49 52 53 50 43 32 30 26 28 29 33 35 23 58 49 42 47 57 54 51 55 57 53
46 47 45 44 44 44 45 40 41 41 41 42 42 41 39 39 42 43 44 46 47 48 50 51 52 53 46 49 54 51 46 37 33 30 32 38 36 39 49 50 55 51 46 52 54 57 51 54 56
49 51 50 48 47 42 46 44 41 45 47 49 49 45 42 42 42 44 46 47 48 49 51 54 51 51 53 53 59 57 53 51 46 40 36 53 61 59 58 53 53 50 56 58 54 58 51 53 53
55 56 55 52 51 49 49 45 46 48 50 52 53 53 51 51 52 54 54 54 54 54 54 55 56 55 55 57 62 63 65 62 57 53 64 61 68 70 60 61 62 57 60 65 68 70 69 67 62
59 60 60 59 58 56 54 51 52 55 56 56 56 57 57 57 58 60 61 62 62 62 62 61 60 59 59 60 62 67 72 78 76 75 76 73 74 79 76 73 73 73 70 71 72 72 68 68 68
62 64 67 66 63 61 60 58 59 61 62 62 63 63 62 62 65 64 63 65 67 69 70 70 69 69 69 67 64 67 72 77 83 86 85 80 80 84 89 83 79 79 79 75 79 79 80 77 74
68 68 70 72 69 68 66 66 64 65 67 68 68 68 69 70 71 70 71 71 72 75 76 77 78 78 79 75 70 69 73 80 91 93 94 95 90 89 89 91 86 84 84 83 81 81 84 83 80
73 71 73 75 71 72 67 66 70 72 74 75 74 73 74 75 75 75 76 77 79 80 81 82 84 86 84 79 75 71 73 79 93 101 100 103 100 97 95 97 91 89 89 92 94 92 87 87 87
74 73 76 78 75 74 72 67 74 77 79 79 78 78 78 80 81 81 82 83 85 85 85 87 89 86 84 82 80 74 72 79 86 100 103 107 101 100 99 98 96 94 96 98 98 97 96 91 94
Wind_Direction
219 214 214 218 225 215 222 220 227 219 215 223 232 234 237 241 252 260 265 253 246 245 245 239 257 267 264 252 261 295 323 270 242 242 244 246 249 249 252 253 255 261 267 276 284 286 288 285 282
227 223 220 217 226 224 226 227 232 231 225 227 236 244 246 248 253 262 252 248 245 249 247 249 259 270 250 255 253 251 273 270 263 259 261 264 265 265 264 263 266 275 283 293 296 292 286 280 286
234 231 224 220 228 230 229 231 234 239 238 235 239 241 245 252 255 254 254 252 243 242 247 247 253 254 247 248 253 264 268 258 258 257 261 268 274 276 275 273 270 271 275 280 292 291 292 294 295
235 234 229 224 230 233 231 233 234 237 242 245 249 246 244 243 247 255 260 261 251 250 243 251 255 252 254 251 266 269 270 260 260 258 259 262 273 273 273 272 270 265 266 272 286 292 291 288 287
239 236 232 231 239 239 239 235 233 236 238 241 244 249 251 253 254 252 252 254 252 243 248 259 265 262 260 260 255 264 275 261 261 258 262 265 265 272 270 275 271 266 264 275 282 283 285 284 283
237 235 235 232 238 242 244 246 238 241 239 240 242 247 251 255 259 261 259 258 250 253 256 264 269 273 271 265 259 255 269 271 257 262 269 274 274 266 262 270 267 267 266 274 281 281 282 283 282
250 245 240 236 238 241 240 243 245 244 245 247 248 248 251 248 247 254 257 260 261 260 261 265 269 271 274 272 272 264 262 272 271 260 266 271 267 267 269 268 267 269 271 272 276 278 279 279 282
248 248 247 243 242 245 243 244 248 249 251 255 258 254 253 254 251 254 257 259 260 261 264 265 264 267 270 268 269 272 275 276 280 277 268 266 268 264 265 267 267 272 274 275 277 276 277 278 279
245 245 245 244 244 246 251 252 253 256 257 257 258 260 261 261 258 255 256 259 261 262 263 264 266 265 267 267 267 268 273 275 277 278 276 277 268 268 269 271 268 270 274 275 276 275 276 277 278
248 246 246 247 248 247 250 253 254 254 258 261 262 264 264 264 265 261 258 258 260 261 262 264 265 265 266 266 265 265 266 270 273 275 275 275 271 270 275 277 273 270 270 272 277 277 277 276 282
252 250 249 252 251 249 248 251 254 253 253 254 254 254 256 257 259 262 262 259 259 261 262 263 265 266 266 266 266 267 268 269 269 272 269 270 270 273 277 282 279 271 272 274 276 280 280 280 286
261 258 255 259 260 257 252 251 253 258 259 258 258 258 258 260 263 264 263 262 261 261 263 264 266 267 266 266 268 269 271 271 268 268 268 271 274 280 283 281 276 273 275 278 281 284 290 291 290
268 266 264 263 262 260 257 255 255 257 260 261 263 266 265 264 265 266 265 263 260 261 261 262 264 265 267 267 267 268 267 268 270 271 272 272 276 280 283 279 277 275 274 275 277 285 287 283 283
268 269 267 265 264 264 262 258 256 255 259 261 264 269 272 273 272 271 270 267 265 262 263 265 267 266 267 268 268 269 271 271 270 272 275 277 280 280 277 275 275 277 276 278 278 280 282 278 276
268 269 269 267 268 269 268 264 259 257 258 262 263 267 271 274 275 273 272 271 271 270 266 264 266 268 269 269 271 269 269 270 272 272 273 275 275 275 274 274 276 275 275 281 280 283 282 277 282
271 270 270 269 268 269 271 269 267 264 263 263 264 266 270 272 270 269 271 272 272 272 269 265 265 263 262 263 265 269 270 270 271 271 272 274 275 276 274 274 274 274 276 277 279 278 280 281 285
273 273 274 274 272 273 273 271 269 270 269 268 268 269 271 271 270 268 268 269 271 271 273 272 269 268 269 269 269 268 270 269 270 276 280 280 278 274 273 274 274 277 278 279 278 280 280 277 276
275 275 272 270 274 274 274 276 277 274 274 273 272 271 268 269 271 272 270 269 269 272 274 274 270 265 266 269 270 269 270 271 273 276 278 275 274 274 273 273 276 278 280 279 277 277 279 280 279
272 273 276 276 272 274 275 276 276 279 279 278 275 276 276 276 274 275 276 276 274 272 273 275 276 270 263 266 268 271 270 272 272 269 266 265 267 273 275 276 277 278 276 282 282 279 280 276 276
271 272 275 280 280 277 276 276 276 278 279 279 280 278 278 279 279 278 278 276 277 276 274 272 271 273 270 263 265 266 269 271 270 271 271 273 276 280 283 281 276 270 275 277 275 268 268 272 274
271 272 276 277 276 277 278 277 274 273 275 277 280 281 279 278 281 281 279 279 279 277 276 272 271 269 269 270 260 263 269 275 277 275 277 274 279 291 286 282 278 275 266 267 272 275 273 278 281
271 273 273 273 272 274 275 272 275 280 279 279 280 282 287 290 287 283 283 284 283 283 284 283 279 272 269 264 263 257 254 261 252 251 263 262 273 271 280 274 275 263 259 262 268 273 273 273 273
271 272 272 270 272 272 273 271 275 278 276 278 280 281 281 284 287 288 286 284 284 284 282 283 282 279 269 253 252 258 255 244 240 239 246 261 274 235 258 258 272 270 260 264 266 268 270 269 268
271 272 270 269 269 271 270 273 275 275 275 276 279 281 281 285 288 288 289 288 285 283 283 285 283 277 273 263 254 250 236 237 226 226 245 256 257 248 254 249 250 249 260 258 260 263 264 266 268
269 270 271 271 270 268 266 268 271 272 274 276 279 281 283 286 289 290 291 290 291 290 288 286 286 284 276 270 260 251 242 241 225 224 238 239 254 246 247 244 246 249 251 254 253 258 261 260 264
268 268 269 269 270 270 269 268 269 272 274 276 279 281 282 284 286 289 289 290 292 292 293 294 291 285 281 273 265 256 248 240 238 227 225 234 233 239 242 246 244 246 247 254 257 259 261 260 259
268 269 269 269 268 267 269 269 269 271 273 275 277 279 279 281 283 284 286 289 292 295 296 296 293 291 288 283 273 265 254 246 233 228 223 227 230 233 238 241 246 248 250 248 251 256 259 261 260
267 268 269 269 270 269 269 269 270 272 275 275 276 278 280 281 283 286 287 290 292 295 295 295 294 292 291 287 276 265 257 245 238 230 228 229 231 234 236 239 244 247 249 252 252 254 253 254 258
268 269 270 270 270 269 269 270 272 272 273 273 274 276 279 282 284 286 289 291 292 294 294 294 293 292 289 284 277 268 258 251 242 238 231 233 233 234 238 240 243 249 252 253 254 258 256 258 260
268 269 270 272 274 275 275 275 275 274 273 273 275 277 279 281 283 285 289 291 292 294 293 292 291 289 286 283 280 273 260 252 246 241 238 234 238 239 242 241 243 248 251 255 256 258 259 258 261
Height
10960 10964 10968 10972 10973 10978 10979 10981 10982 10984 10987 10989 10990 10991 10992 10993 10994 10996 10997 10998 10999 10999 10999 10998 10998 10998 10999 10999 11000 11001 11001 11002 11002 11002 11002 11002 11002 11002 11002 11002 11002 11002 11002 11002 11003 11002 11002 11001 10999
10957 10961 10965 10969 10971 10973 10975 10977 10978 10980 10983 10985 10986 10986 10987 10988 10990 10992 10994 10995 10995 10996 10996 10996 10997 10996 10996 10997 10998 10998 10999 10999 11000 11000 10999 11000 11000 11000 11000 11000 11000 11001 11001 11001 10999 10998 10998 10997 10996
10954 10957 10962 10966 10968 10966 10969 10972 10974 10976 10979 10981 10982 10982 10982 10983 10985 10986 10988 10990 10991 10992 10992 10993 10993 10993 10994 10994 10994 10996 10997 10996 10996 10996 10996 10997 10997 10997 10997 10996 10996 10996 10997 10996 10996 10995 10994 10993 10992
10950 10954 10958 10964 10963 10962 10963 10966 10970 10973 10974 10975 10974 10975 10974 10976 10980 10983 10983 10984 10986 10986 10987 10987 10988 10988 10989 10990 10991 10992 10992 10993 10993 10993 10992 10992 10993 10993 10992 10991 10991 10991 10991 10992 10992 10991 10990 10989 10987
10945 10949 10953 10958 10958 10958 10957 10959 10964 10966 10967 10969 10970 10969 10971 10976 10979 10980 10980 10980 10981 10981 10981 10982 10983 10983 10984 10985 10985 10986 10987 10988 10989 10989 10989 10989 10989 10989 10989 10988 10988 10987 10986 10986 10986 10986 10984 10984 10982
10940 10943 10947 10951 10951 10952 10952 10952 10956 10958 10961 10963 10965 10965 10969 10972 10974 10973 10973 10974 10976 10977 10977 10977 10976 10976 10977 10978 10979 10980 10980 10981 10982 10983 10984 10985 10986 10985 10984 10983 10983 10982 10981 10981 10980 10980 10979 10978 10977
10936 10939 10941 10944 10944 10944 10945 10946 10948 10951 10955 10957 10959 10962 10962 10962 10965 10963 10963 10965 10967 10970 10970 10970 10970 10969 10970 10972 10973 10974 10975 10975 10977 10976 10976 10977 10978 10979 10979 10978 10977 10977 10975 10974 10974 10973 10972 10971 10970
10932 10934 10936 10937 10937 10937 10940 10942 10944 10947 10949 10950 10952 10953 10953 10952 10957 10957 10956 10958 10959 10959 10961 10961 10962 10963 10963 10963 10965 10966 10967 10968 10968 10969 10970 10970 10969 10970 10970 10972 10972 10971 10969 10967 10966 10964 10963 10963 10962
10927 10929 10930 10930 10931 10933 10936 10939 10941 10941 10943 10944 10945 10946 10946 10944 10947 10949 10950 10950 10949 10949 10951 10952 10953 10954 10955 10956 10957 10958 10958 10959 10959 10959 10961 10961 10961 10962 10962 10964 10964 10964 10962 10960 10957 10954 10952 10953 10953
10922 10923 10923 10923 10926 10931 10932 10933 10934 10937 10938 10938 10938 10939 10937 10935 10934 10938 10941 10940 10940 10940 10943 10943 10943 10944 10945 10945 10947 10947 10948 10949 10949 10950 10950 10950 10951 10952 10953 10955 10955 10954 10952 10951 10949 10945 10944 10943 10944
10916 10916 10918 10918 10921 10925 10926 10926 10925 10928 10930 10930 10929 10928 10927 10925 10926 10928 10930 10931 10931 10931 10932 10932 10933 10935 10936 10936 10937 10937 10938 10938 10939 10940 10939 10940 10941 10942 10943 10944 10943 10943 10943 10940 10940 10938 10937 10936 10934
10910 10910 10913 10912 10914 10917 10919 10919 10919 10922 10922 10920 10918 10919 10921 10919 10918 10918 10920 10920 10920 10921 10921 10922 10923 10924 10925 10926 10925 10927 10928 10928 10930 10929 10930 10931 10931 10931 10932 10931 10931 10932 10931 10931 10931 10930 10929 10928 10926
10903 10904 10907 10907 10907 10909 10910 10912 10914 10916 10915 10913 10912 10911 10910 10910 10908 10908 10906 10906 10910 10912 10912 10913 10913 10914 10914 10915 10916 10916 10918 10918 10918 10918 10919 10920 10920 10920 10920 10919 10919 10921 10920 10921 10923 10921 10919 10917 10913
10896 10897 10899 10899 10898 10899 10901 10905 10907 10909 10907 10907 10905 10903 10901 10900 10898 10897 10895 10896 10896 10902 10902 10903 10903 10904 10905 10904 10905 10906 10905 10905 10906 10906 10906 10907 10909 10909 10909 10909 10911 10911 10911 10911 10911 10909 10908 10908 10904
10889 10889 10889 10889 10891 10891 10890 10895 10898 10900 10900 10899 10896 10894 10892 10889 10887 10884 10883 10885 10889 10890 10894 10894 10894 10893 10894 10894 10892 10894 10894 10894 10894 10895 10894 10895 10898 10899 10898 10900 10902 10900 10903 10902 10900 10900 10899 10899 10897
10879 10879 10880 10881 10883 10882 10880 10883 10885 10887 10888 10888 10886 10884 10881 10877 10874 10874 10877 10876 10871 10872 10875 10881 10881 10881 10882 10881 10880 10880 10882 10883 10885 10886 10885 10886 10887 10888 10887 10888 10890 10891 10890 10890 10889 10890 10889 10888 10885
10868 10869 10870 10870 10873 10873 10871 10872 10871 10874 10874 10874 10874 10874 10870 10865 10863 10865 10864 10864 10862 10859 10860 10863 10871 10872 10872 10871 10871 10869 10867 10869 10871 10873 10874 10876 10875 10874 10873 10877 10881 10882 10879 10876 10877 10878 10876 10874 10873
10858 10856 10858 10862 10863 10863 10861 10860 10860 10860 10861 10859 10859 10860 10859 10855 10853 10852 10852 10852 10850 10848 10848 10849 10854 10858 10857 10856 10856 10856 10856 10858 10862 10864 10864 10864 10861 10861 10861 10865 10868 10867 10865 10865 10865 10864 10858 10861 10860
10850 10846 10844 10848 10855 10852 10852 10852 10850 10847 10849 10847 10846 10848 10847 10844 10843 10841 10841 10839 10839 10840 10839 10838 10833 10839 10844 10842 10841 10841 10843 10848 10852 10855 10856 10853 10848 10850 10850 10851 10852 10855 10852 10851 10850 10848 10846 10846 10848
10842 10839 10838 10837 10839 10840 10843 10842 10839 10838 10836 10834 10832 10834 10833 10833 10833 10831 10829 10830 10829 10828 10828 10827 10822 10818 10823 10827 10828 10830 10834 10837 10840 10842 10842 10840 10837 10838 10837 10838 10835 10838 10837 10836 10834 10832 10830 10835 10836
10833 10830 10831 10830 10829 10828 10831 10832 10830 10827 10826 10824 10821 10820 10820 10821 10820 10818 10817 10818 10818 10817 10814 10812 10810 10812 10808 10810 10814 10818 10819 10822 10827 10829 10829 10828 10826 10823 10823 10821 10823 10823 10823 10820 10818 10818 10817 10820 10821
10824 10823 10822 10821 10820 10820 10820 10822 10819 10817 10814 10813 10812 10811 10810 10808 10808 10806 10803 10803 10805 10804 10799 10797 10799 10800 10800 10803 10801 10801 10806 10809 10813 10813 10817 10818 10818 10818 10818 10808 10810 10810 10810 10805 10805 10804 10803 10804 10807
10813 10812 10812 10811 10811 10811 10808 10811 10809 10806 10804 10801 10800 10802 10802 10801 10797 10794 10792 10792 10792 10791 10788 10786 10785 10783 10787 10786 10785 10789 10793 10795 10797 10800 10804 10806 10807 10813 10805 10800 10799 10798 10794 10791 10792 10791 10790 10790 10792
10803 10799 10800 10800 10801 10804 10797 10798 10800 10794 10791 10788 10787 10788 10789 10789 10786 10783 10780 10778 10779 10779 10775 10772 10773 10774 10771 10771 10772 10775 10773 10777 10777 10782 10786 10791 10790 10788 10785 10784 10784 10783 10786 10782 10780 10779 10779 10781 10781
10789 10788 10786 10789 10789 10790 10789 10789 10787 10782 10779 10777 10775 10774 10773 10774 10772 10769 10766 10763 10762 10762 10762 10761 10758 10754 10753 10750 10750 10754 10758 10761 10761 10759 10760 10764 10766 10766 10765 10766 10767 10767 10768 10768 10769 10770 10768 10769 10770
10774 10772 10772 10772 10774 10774 10775 10779 10774 10768 10766 10765 10763 10762 10760 10759 10758 10754 10750 10747 10746 10746 10745 10744 10741 10740 10738 10737 10734 10733 10736 10742 10746 10741 10738 10742 10742 10745 10747 10745 10749 10750 10751 10753 10754 10754 10755 10756 10756
10759 10756 10752 10755 10759 10759 10760 10762 10758 10756 10753 10750 10747 10745 10745 10744 10743 10741 10738 10734 10730 10727 10724 10721 10719 10716 10713 10713 10711 10709 10709 10714 10718 10721 10719 10721 10722 10726 10729 10728 10729 10733 10735 10738 10738 10738 10740 10743 10743
10737 10739 10737 10735 10739 10741 10746 10744 10743 10740 10735 10731 10729 10729 10727 10725 10723 10721 10720 10719 10716 10712 10707 10702 10696 10692 10690 10688 10687 10686 10686 10689 10692 10694 10698 10697 10699 10706 10712 10711 10710 10713 10719 10720 10722 10721 10725 10726 10726
10718 10721 10718 10713 10720 10719 10727 10729 10726 10721 10715 10713 10712 10711 10709 10706 10702 10700 10700 10699 10698 10693 10688 10680 10674 10668 10663 10659 10657 10657 10657 10658 10662 10665 10671 10672 10677 10683 10688 10690 10691 10693 10698 10700 10702 10705 10708 10709 10712
10701 10702 10698 10693 10699 10700 10704 10713 10703 10697 10693 10692 10693 10691 10690 10684 10681 10679 10680 10678 10675 10672 10668 10660 10650 10643 10637 10632 10627 10624 10624 10627 10630 10635 10643 10649 10657 10662 10664 10668 10672 10675 10676 10677 10681 10684 10688 10691 10695